Location: Escondida
(34.1015°N, 106.8964°W)
Time: 14:01:38
(UTC+00:00)

ISS - Pass Details

Date: 15 February 2026
Orbit: 415 x 426 km, 51.6° (Epoch: 13 March)

Event Time Altitude Azimuth Distance (km) Brightness Sun altitude
Exits shadow 12:18:40 29° 0° (N) 793 -2.4 -20.0°
Drops below altitude 10° 12:20:49 10° 31° (NNE) 1,491 -0.6 -19.5°
Sets 12:23:01 0° 40° (NE) 2,355 0.6 -19.1°
